TULLOCH (TUL)

Elevation: 515' · STANISLAUS R basin · Operator: US Bureau of Reclamation

Provisional data, subject to change.
Query executed Wednesday at 23:13:37   clock

Select a sensor type for a plot of data.
Note: Reservoir Flows are daily averages.

Earlier

Date RES ELE    STORAGE    RES CHG    TOC STO    ABV TOC    OUTFLOW    INFLOW    EVAP    RIV REL    SPILL    DIS PWR   
 FEET   AF   AF   AF   AF   CFS   CFS   CFS   CFS   CFS   CFS  
09/02/2014 508.75 65412 49 67000 -1588 1407 1450 18 0 0 1407
09/03/2014 508.87 65560 148 67000 -1440 1285 1376 16 0 0 1285
09/04/2014 508.58 65203 -357 67000 -1797 1159 995 16 0 0 1159
09/05/2014 508.77 65437 234 67000 -1563 1125 1259 16 0 0 1125
09/06/2014 508.78 65449 12 67000 -1551 1136 1156 14 0 0 1136
09/07/2014 507.89 64356 -1093 67000 -2644 1056 519 14 0 0 1056
09/08/2014 508.25 64797 441 67000 -2203 987 1224 15 0 0 987
09/09/2014 508.63 65265 468 67000 -1735 986 1236 14 0 0 986
09/10/2014 508.78 65449 184 67000 -1551 991 1098 14 0 0 991
09/11/2014 509.06 65795 346 67000 -1205 1005 1194 15 0 0 1005
09/12/2014 508.97 65683 -112 67000 -1317 993 951 14 0 0 993
09/13/2014 508.75 65412 -271 67000 -1588 1054 932 15 0 0 1054
09/14/2014 507.73 64162 -1250 67000 -2838 1069 457 18 0 0 1069
09/15/2014 507.58 63980 -182 67000 -3020 1106 1029 15 0 0 1106
09/16/2014 507.32 63665 -315 66783 -3118 1060 917 16 0 0 1060
09/17/2014 507.19 63507 -158 66565 -3058 965 897 12 0 0 965
09/18/2014 507.20 63519 12 66348 -2829 852 871 13 0 0 852
09/19/2014 507.75 64186 667 66130 -1944 793 1140 11 0 0 793
09/20/2014 507.90 64368 182 65913 -1545 798 901 11 0 0 798
09/21/2014 507.43 63798 -570 65696 -1898 809 540 18 0 0 809
09/22/2014 507.88 64344 546 65478 -1134 907 1193 11 0 0 907
09/23/2014 507.95 64428 84 65261 -833 979 1030 9 0 0 979
09/24/2014 508.06 64563 135 65043 -480 949 1028 11 0 0 949
09/25/2014 507.15 63459 -1104 64826 -1367 913 369 13 0 0 913
09/26/2014 506.67 62883 -576 64609 -1726 688 401 3 0 0 688
09/27/2014 506.70 62919 36 64391 -1472 526 556 12 0 0 526
09/28/2014 505.86 61918 -1001 64174 -2256 511 11 5 0 0 511
09/29/2014 505.77 61813 -105 63956 -2143 453 405 5 34 0 419
09/30/2014 505.71 61742 -71 63739 -1997 442 413 7 0 0 442
10/01/2014 -- -- -- -- -- -- -- -- -- -- --

Later | Latest

Warning! This data is preliminary and subject to revision.

Download Data Now Download Data Now | Show TUL Map | Plot TUL Data | 1 Month TUL Data | Real-Time TUL Data | TUL Info